Regional Weather Roundup
Issued by NWS Columbia, SC

Home | Current Version | Previous Version | Text Only | Print | Product List | Glossary On
Versions: 1 2 3 4 5 6 7 8 9 10 11 12 13 14 15 16 17 18 19 20 21 22 23 24 25 26 27 28 29 30 31 32 33 34 35 36 37 38 39 40 41 42 43 44 45 46 47 48 49 50
000
ASUS42 KCAE 300110
RWRCAE
REGIONAL WEATHER ROUNDUP
NATIONAL WEATHER SERVICE COLUMBIA SC
900 PM EDT MON MAY 29 2017

NOTE: "FAIR" INDICATES FEW OR NO CLOUDS BELOW 12,000 FEET WITH NO
SIGNIFICANT WEATHER AND/OR OBSTRUCTIONS TO VISIBILITY.

NOT ALL STATIONS ARE QUALITY CONTROLLED BY THE NATIONAL
WEATHER SERVICE. USE DATA WITH CAUTION...ESPECIALLY
DEWPOINT OBSERVATIONS.

SCZ001>056-GAZ040-063>065-077-300200-
...UPSTATE SOUTH CAROLINA...

CITY           SKY/WX    TMP DP  RH WIND       PRES   REMARKS
ANDERSON       PTCLDY    70  68  93 SW3       30.02S
SPARTANBURG    CLOUDY    72  68  88 CALM      30.01S
CLEMSON        PTCLDY    72  68  87 CALM      30.03R
GREENVILLE     CLOUDY    72  68  87 S5        30.03R
GREENWOOD      CLOUDY    71  69  93 CALM      30.03F
GREER          MOCLDY    70  67  90 S6        30.01R
ROCK HILL      LGT RAIN  69  66  90 E5        30.03F
CHESTER        LGT RAIN  70  64  83 E3        30.04F
LAURENS        CLOUDY    70  68  94 CALM      30.02S


...CENTRAL SOUTH CAROLINA...

CITY           SKY/WX    TMP DP  RH WIND       PRES   REMARKS
COLUMBIA APT   TSTM      74  69  85 NW9       30.00F
COLUMBIA OWENS CLOUDY    74  71  91 NW7       30.03R
MCENTIRE ANGB  CLOUDY    71  68  91 CALM      30.02F
ORANGEBURG     CLOUDY    77  65  66 NW9       30.02R
SUMTER SHAW    LGT RAIN  72  68  88 N7        29.99S
AIKEN          FAIR      66  64  94 CALM      30.05F
BARNWELL       FAIR      79  68  69 N12G17    30.02R
MANNING        FAIR      79  73  83 SE13G28   29.97S
CAMDEN         DRIZZLE   79  70  73 W9G16     30.03R
LANCASTER      RAIN      72  72 100 NW3       30.04R
WINNSBORO      RAIN      73  68  83 SW6       30.05R


...EASTERN AND COASTAL SOUTH CAROLINA...

CITY           SKY/WX    TMP DP  RH WIND       PRES   REMARKS
MYRTLE BEACH   CLEAR     79  72  78 SW14      30.00R
N MYRTLE BCH   CLEAR     78  73  84 SW12      30.00R
CONWAY         FAIR      77  73  88 CALM      30.00R
MARION         FAIR      77  70  78 CALM      29.99R HAZE
HARTSVILLE     FAIR      79  68  69 W3        30.00R
FLORENCE       CLOUDY    81  69  67 W3        30.00R
DARLINGTON     LGT RAIN  83  71  67 SW6       30.00R
CHARLESTON APT PTCLDY    79  68  69 SW10      30.00R
MOUNT PLEASANT FAIR      81  72  74 S8        30.00S
WALTERBORO     PTCLDY    81  72  74 S6        30.01R
BEAUFORT       PTCLDY    80  74  81 S3        30.00R


...EASTERN GEORGIA...

CITY           SKY/WX    TMP DP  RH WIND       PRES   REMARKS
AUGUSTA BUSH F CLOUDY    74  69  85 N7        30.01S
AUGUSTA DANIEL PTCLDY    72  67  84 CALM      30.03R
THOMSON        FOG       69  68  98 CALM      30.08R VSB 1/2
WASHINGTON     FAIR      72  72 100 CALM      30.03S
CLAXTON        FAIR      80  74  82 CALM      30.01R
SYLVANIA       LGT RAIN  83  73  72 CALM      30.01R
STATESBORO     LGT RAIN  76  72  87 CALM      30.01R
SAVANNAH       MOCLDY    82  72  71 S8        30.01R


...SOUTHERN NORTH CAROLINA...

CITY           SKY/WX    TMP DP  RH WIND       PRES   REMARKS
CHARLOTTE      LGT RAIN  69  65  86 SE8       30.05R
MONROE         CLOUDY    70  63  78 N6        30.04R
WADESBORO      CLOUDY    71  64  79 N12G23    30.03R
ROCKINGHAM     PTCLDY    79  70  72 NW5       30.00R
RUTHERFORDTON  DRIZZLE   68  68 100 E6        30.02F
ASHEVILLE      CLOUDY    68  62  81 N5        30.06F

$$



USA.gov is the U.S. government's official web portal to all federal, state and local government web resources and services.